| time (UTC) | temp F | wind direction | speed knots | gust knots | rain 1hr in | rain 24hr in | rain mn in | humidity % | barometer mb |
| 20260901192711 | 88 | 170 | 5.2 | 10.4 | 0.00 | 0.01 | 0.01 | 66 | 1009.6 |
| 20260901191710 | 88 | 94 | 6.1 | 14.8 | 0.00 | 0.01 | 0.01 | 63 | 1009.6 |
| 20260901185710 | 88 | 190 | 7.0 | 15.6 | 0.00 | 0.01 | 0.01 | 66 | 1009.6 |
| 20260901184711 | 88 | 122 | 7.8 | 13.0 | 0.00 | 0.01 | 0.01 | 66 | 1009.6 |
| 20260901183710 | 88 | 139 | 6.1 | 12.2 | 0.00 | 0.01 | 0.01 | 68 | 1009.6 |
| 20260901182710 | 88 | 81 | 6.1 | 15.6 | 0.00 | 0.01 | 0.01 | 68 | 1009.7 |
| 20260901175711 | 87 | 94 | 6.1 | 8.7 | 0.00 | 0.01 | 0.01 | 68 | 1010.1 |
| 20260901174710 | 87 | 96 | 6.1 | 10.4 | 0.00 | 0.01 | 0.01 | 69 | 1010.2 |
| 20260901173710 | 87 | 94 | 4.3 | 8.7 | 0.00 | 0.01 | 0.01 | 72 | 1010.1 |
| 20260901172710 | 87 | 115 | 4.3 | 7.8 | 0.00 | 0.01 | 0.01 | 70 | 1010.1 |
| 20260901171711 | 86 | 58 | 4.3 | 10.4 | 0.00 | 0.01 | 0.01 | 71 | 1010.2 |
| 20260901170710 | 86 | 68 | 4.3 | 10.4 | 0.00 | 0.01 | 0.01 | 70 | 1010.1 |
| 20260901165711 | 86 | 52 | 2.6 | 7.8 | 0.00 | 0.01 | 0.01 | 71 | 1010.2 |
| 20260901164710 | 86 | 315 | 2.6 | 7.8 | 0.00 | 0.01 | 0.01 | 70 | 1010.3 |
| 20260901162711 | 84 | 44 | 4.3 | 10.4 | 0.00 | 0.01 | 0.01 | 73 | 1010.3 |
| 20260901161710 | 84 | 36 | 4.3 | 7.8 | 0.00 | 0.01 | 0.01 | 72 | 1010.4 |
| 20260901160711 | 84 | 327 | 3.5 | 7.0 | 0.00 | 0.01 | 0.01 | 71 | 1010.5 |
| 20260901155710 | 83 | 29 | 2.6 | 7.8 | 0.00 | 0.01 | 0.01 | 71 | 1010.5 |
| 20260901154710 | 83 | 42 | 2.6 | 6.1 | 0.00 | 0.01 | 0.01 | 71 | 1010.3 |
| 20260901153710 | 83 | 23 | 4.3 | 7.0 | 0.00 | 0.01 | 0.01 | 72 | 1010.4 |
| 20260901152711 | 83 | 47 | 2.6 | 6.1 | 0.00 | 0.01 | 0.01 | 72 | 1010.3 |
| 20260901151712 | 83 | 61 | 3.5 | 6.1 | 0.00 | 0.01 | 0.01 | 69 | 1010.3 |
| 20260901150710 | 83 | 11 | 2.6 | 5.2 | 0.00 | 0.01 | 0.01 | 70 | 1010.3 |
| 20260901145710 | 83 | 0 | 1.7 | 4.3 | 0.00 | 0.01 | 0.01 | 70 | 1010.5 |
| 20260901144710 | 82 | 57 | 0.0 | 2.6 | 0.00 | 0.01 | 0.01 | 71 | 1010.4 |
| 20260901143711 | 81 | 69 | 0.9 | 2.6 | 0.00 | 0.01 | 0.01 | 73 | 1010.6 |
| 20260901142711 | 80 | 115 | 0.9 | 2.6 | 0.00 | 0.01 | 0.01 | 75 | 1010.6 |
| 20260901141711 | 79 | 69 | 0.9 | 2.6 | 0.00 | 0.01 | 0.01 | 76 | 1010.9 |
| 20260901140710 | 79 | 117 | 1.7 | 2.6 | 0.00 | 0.01 | 0.01 | 80 | 1010.7 |
| 20260901134710 | 77 | 56 | 1.7 | 2.6 | 0.00 | 0.01 | 0.01 | 86 | 1011.1 |
| 20260901133712 | 77 | 108 | 0.9 | 1.7 | 0.00 | 0.01 | 0.01 | 86 | 1011.2 |
| 20260901132710 | 76 | 101 | 0.9 | 1.7 | 0.00 | 0.01 | 0.01 | 88 | 1011.2 |
| 20260901131711 | 75 | 101 | 0.0 | 0.0 | 0.00 | 0.01 | 0.01 | 90 | 1011.2 |
| 20260901130710 | 74 | 101 | 0.0 | 1.7 | 0.00 | 0.01 | 0.01 | 90 | 1011.0 |
| 20260901124711 | 74 | 69 | 0.0 | 0.0 | 0.00 | 0.01 | 0.01 | 90 | 1010.8 |
| 20260901123711 | 73 | 69 | 0.0 | 2.6 | 0.00 | 0.01 | 0.01 | 90 | 1010.6 |
| 20260901122711 | 73 | 88 | 0.9 | 2.6 | 0.00 | 0.01 | 0.01 | 90 | 1010.5 |
| 20260901121711 | 73 | 55 | 1.7 | 2.6 | 0.00 | 0.01 | 0.01 | 90 | 1010.3 |
| 20260901120710 | 73 | 55 | 0.0 | 2.6 | 0.00 | 0.01 | 0.01 | 90 | 1010.4 |
| 20260901115711 | 73 | 49 | 0.9 | 2.6 | 0.00 | 0.01 | 0.01 | 90 | 1010.3 |
| 20260901114711 | 73 | 48 | 0.0 | 2.6 | 0.00 | 0.01 | 0.01 | 90 | 1010.2 |
| 20260901113711 | 73 | 59 | 0.9 | 1.7 | 0.00 | 0.01 | 0.01 | 90 | 1010.2 |
| 20260901112711 | 74 | 76 | 0.0 | 2.6 | 0.00 | 0.01 | 0.01 | 90 | 1010.1 |
| 20260901111711 | 74 | 48 | 1.7 | 2.6 | 0.00 | 0.01 | 0.01 | 90 | 1009.9 |
| 20260901110710 | 74 | 66 | 0.0 | 2.6 | 0.00 | 0.01 | 0.01 | 90 | 1009.9 |
| 20260901105711 | 74 | 54 | 0.9 | 4.3 | 0.00 | 0.01 | 0.01 | 90 | 1009.9 |
| 20260901104710 | 74 | 59 | 1.7 | 2.6 | 0.00 | 0.01 | 0.01 | 89 | 1010.0 |
| 20260901102710 | 75 | 89 | 1.7 | 2.6 | 0.00 | 0.01 | 0.01 | 88 | 1009.9 |
| 20260901101711 | 75 | 68 | 0.9 | 1.7 | 0.00 | 0.01 | 0.01 | 87 | 1010.1 |
| 20260901100710 | 75 | 137 | 0.0 | 1.7 | 0.00 | 0.01 | 0.01 | 87 | 1010.2 |
| 20260901095711 | 75 | 137 | 0.0 | 1.7 | 0.00 | 0.01 | 0.01 | 86 | 1010.2 |
| 20260901094711 | 76 | 137 | 0.9 | 2.6 | 0.00 | 0.01 | 0.01 | 85 | 1010.2 |
| 20260901093710 | 76 | 108 | 0.0 | 1.7 | 0.00 | 0.01 | 0.01 | 85 | 1010.2 |
| 20260901091711 | 77 | 123 | 1.7 | 2.6 | 0.00 | 0.01 | 0.01 | 84 | 1010.4 |
| 20260901090710 | 77 | 61 | 0.0 | 0.0 | 0.00 | 0.01 | 0.01 | 84 | 1010.3 |
| 20260901085710 | 77 | 61 | 0.0 | 1.7 | 0.00 | 0.01 | 0.01 | 84 | 1010.5 |
| 20260901084711 | 77 | 34 | 0.9 | 1.7 | 0.01 | 0.01 | 0.01 | 83 | 1010.8 |
| 20260901083710 | 77 | 109 | 0.9 | 6.1 | 0.01 | 0.01 | 0.01 | 83 | 1010.4 |
| 20260901082711 | 77 | 127 | 4.3 | 6.1 | 0.01 | 0.01 | 0.01 | 84 | 1010.3 |
| 20260901081710 | 77 | 100 | 1.7 | 6.1 | 0.01 | 0.01 | 0.01 | 85 | 1010.4 |
| 20260901080710 | 77 | 142 | 2.6 | 6.1 | 0.01 | 0.01 | 0.01 | 84 | 1010.5 |
| 20260901075711 | 78 | 115 | 3.5 | 6.1 | 0.01 | 0.01 | 0.01 | 84 | 1010.7 |
| 20260901074711 | 77 | 108 | 1.7 | 2.6 | 0.00 | 0.00 | 0.00 | 83 | 1011.1 |
| 20260901072710 | 78 | 146 | 0.9 | 1.7 | 0.00 | 0.00 | 0.00 | 84 | 1011.2 |
| 20260901071711 | 78 | 93 | 0.0 | 0.0 | 0.00 | 0.00 | 0.00 | 84 | 1011.1 |
| 20260901070710 | 78 | 93 | 0.0 | 0.9 | 0.00 | 0.00 | 0.00 | 84 | 1010.9 |
| 20260901065711 | 78 | 94 | 0.9 | 2.6 | 0.00 | 0.00 | 0.00 | 84 | 1011.3 |
| 20260901064711 | 78 | 59 | 0.9 | 1.7 | 0.00 | 0.00 | 0.00 | 84 | 1011.3 |
| 20260901063710 | 78 | 114 | 0.9 | 2.6 | 0.00 | 0.00 | 0.00 | 83 | 1011.3 |
| 20260901062711 | 78 | 98 | 1.7 | 2.6 | 0.00 | 0.00 | 0.00 | 84 | 1011.3 |
| 20260901061710 | 77 | 108 | 0.9 | 2.6 | 0.00 | 0.00 | 0.00 | 84 | 1011.3 |
| 20260901060712 | 77 | 111 | 1.7 | 2.6 | 0.00 | 0.00 | 0.00 | 86 | 1011.5 |
| 20260901055710 | 77 | 120 | 0.0 | 0.0 | 0.00 | 0.00 | 0.00 | 86 | 1011.6 |
| 20260901054710 | 76 | 120 | 0.0 | 0.0 | 0.00 | 0.00 | 0.00 | 86 | 1011.4 |
| 20260901053710 | 76 | 120 | 0.0 | 1.7 | 0.00 | 0.00 | 0.00 | 86 | 1011.6 |
| 20260901050711 | 76 | 119 | 0.9 | 5.2 | 0.00 | 0.00 | 0.00 | 86 | 1011.5 |
| 20260901045710 | 76 | 9 | 0.9 | 2.6 | 0.00 | 0.00 | 0.00 | 85 | 1011.6 |
| 20260901044711 | 77 | 327 | 0.0 | 0.0 | 0.00 | 0.00 | 0.00 | 84 | 1011.6 |
| 20260901043711 | 77 | 327 | 0.0 | 0.0 | 0.00 | 0.00 | 0.00 | 84 | 1011.6 |
| 20260901041710 | 77 | 326 | 0.0 | 0.0 | 0.00 | 0.00 | 0.00 | 82 | 1011.5 |
| 20260901040710 | 78 | 105 | 0.0 | 0.0 | 0.00 | 0.00 | 0.00 | 82 | 1011.5 |
| 20260901034710 | 78 | 105 | 0.0 | 0.0 | 0.00 | 0.00 | 0.00 | 81 | 1011.4 |
| 20260901033711 | 78 | 105 | 0.0 | 0.0 | 0.00 | 0.00 | 0.00 | 80 | 1011.4 |
| 20260901032710 | 79 | 105 | 0.0 | 1.7 | 0.00 | 0.00 | 0.00 | 80 | 1011.2 |
| 20260901031710 | 79 | 105 | 0.9 | 0.9 | 0.00 | 0.00 | 0.00 | 80 | 1011.3 |
| 20260901025711 | 79 | 105 | 0.0 | 2.6 | 0.00 | 0.00 | 0.00 | 79 | 1011.1 |
| 20260901021710 | 81 | 57 | 0.9 | 1.7 | 0.00 | 0.00 | 0.00 | 73 | 1010.6 |
| 20260901015711 | 83 | 57 | 0.0 | 0.9 | 0.00 | 0.00 | 0.00 | 69 | 1010.4 |
| 20260901014710 | 83 | 57 | 0.0 | 1.7 | 0.00 | 0.00 | 0.00 | 68 | 1010.2 |
| 20260901013711 | 84 | 171 | 0.0 | 0.9 | 0.00 | 0.00 | 0.00 | 67 | 1010.3 |
| 20260901012710 | 85 | 171 | 0.0 | 0.0 | 0.00 | 0.00 | 0.00 | 66 | 1010.2 |
| 20260901011710 | 85 | 171 | 0.0 | 1.7 | 0.00 | 0.00 | 0.00 | 65 | 1010.1 |
| 20260901010710 | 87 | 171 | 0.9 | 1.7 | 0.00 | 0.00 | 0.00 | 63 | 1010.3 |
| 20260901005710 | 87 | 171 | 0.9 | 2.6 | 0.00 | 0.00 | 0.00 | 61 | 1010.2 |
| 20260901003711 | 89 | 170 | 0.0 | 0.0 | 0.00 | 0.00 | 0.00 | 59 | 1010.2 |
| 20260901001711 | 89 | 170 | 0.9 | 1.7 | 0.00 | 0.00 | 0.00 | 57 | 1010.4 |
| 20260901000711 | 89 | 197 | 0.9 | 2.6 | 0.00 | 0.00 | 0.00 | 59 | 1010.3 |
| 20260831235710 | 89 | 218 | 0.9 | 1.7 | 0.00 | 0.00 | 0.00 | 58 | 1010.4 |
| 20260831234710 | 89 | 247 | 1.7 | 2.6 | 0.00 | 0.00 | 0.00 | 57 | 1010.5 |
| 20260831233710 | 89 | 232 | 0.9 | 2.6 | 0.00 | 0.00 | 0.00 | 56 | 1010.5 |
| 20260831232711 | 90 | 196 | 0.9 | 2.6 | 0.00 | 0.00 | 0.00 | 55 | 1010.5 |
| 20260831231711 | 90 | 219 | 0.9 | 2.6 | 0.00 | 0.00 | 0.00 | 56 | 1010.5 |
| 20260831225711 | 90 | 261 | 2.6 | 4.3 | 0.00 | 0.00 | 0.00 | 56 | 1010.6 |
| 20260831224710 | 90 | 229 | 2.6 | 4.3 | 0.00 | 0.00 | 0.00 | 55 | 1010.7 |
| 20260831223711 | 91 | 201 | 2.6 | 4.3 | 0.00 | 0.00 | 0.00 | 55 | 1010.8 |
| 20260831222710 | 91 | 185 | 1.7 | 4.3 | 0.00 | 0.00 | 0.00 | 55 | 1010.7 |
| 20260831220711 | 91 | 201 | 1.7 | 5.2 | 0.00 | 0.00 | 0.00 | 55 | 1010.9 |
| 20260831215710 | 90 | 248 | 1.7 | 2.6 | 0.00 | 0.00 | 0.00 | 55 | 1010.7 |
| 20260831214711 | 90 | 144 | 1.7 | 7.0 | 0.00 | 0.00 | 0.00 | 58 | 1010.9 |
| 20260831213711 | 90 | 136 | 1.7 | 6.1 | 0.00 | 0.00 | 0.00 | 57 | 1011.0 |
| 20260831212710 | 90 | 196 | 4.3 | 7.0 | 0.00 | 0.00 | 0.00 | 56 | 1011.0 |
| 20260831211711 | 90 | 154 | 2.6 | 5.2 | 0.00 | 0.00 | 0.00 | 56 | 1010.9 |
| 20260831210710 | 90 | 290 | 1.7 | 5.2 | 0.00 | 0.00 | 0.00 | 56 | 1010.9 |
| 20260831205711 | 89 | 200 | 0.0 | 6.1 | 0.00 | 0.00 | 0.00 | 57 | 1011.0 |
| 20260831204711 | 89 | 156 | 1.7 | 6.1 | 0.00 | 0.00 | 0.00 | 59 | 1011.2 |
| 20260831203710 | 89 | 204 | 1.7 | 7.0 | 0.00 | 0.00 | 0.00 | 60 | 1011.3 |
| 20260831202711 | 88 | 196 | 2.6 | 7.0 | 0.00 | 0.00 | 0.00 | 63 | 1011.3 |
| 20260831201710 | 88 | 49 | 1.7 | 7.0 | 0.00 | 0.00 | 0.00 | 64 | 1011.3 |
| 20260831200711 | 88 | 160 | 2.6 | 7.0 | 0.00 | 0.00 | 0.00 | 65 | 1011.4 |
| 20260831195710 | 88 | 116 | 1.7 | 4.3 | 0.00 | 0.00 | 0.00 | 64 | 1011.3 |
| 20260831194711 | 87 | 155 | 0.9 | 2.6 | 0.00 | 0.00 | 0.00 | 64 | 1011.3 |
| 20260831193711 | 86 | 260 | 0.9 | 5.2 | 0.00 | 0.00 | 0.00 | 67 | 1011.5 |